Current Version              Previous Version:    01  02  03  04  05  06  07  08  09  10  11  12  13  14  15  16  17  18  19  20  21  22  23  24  25  26  27  28  29  30  
   31  32  33  34  35  36  37  38  39  40  41  42  43  44  45  46  47  48  49  50  51  52  53  54  55  56  57  58  59  60  

[Printable]
033
ASUS44 KFWD 251215
RWRTX
NORTH TEXAS HOURLY WEATHER ROUNDUP
NATIONAL WEATHER SERVICE FORT WORTH TX
600 AM CST SUN JAN 25 2015

NOTE: "FAIR" INDICATES FEW OR NO CLOUDS BELOW 12,000 FEET WITH NO
SIGNIFICANT WEATHER AND/OR OBSTRUCTIONS TO VISIBILITY.

TXZ118-119-251300-
DALLAS/FORT WORTH METROPLEX

CITY           SKY/WX    TMP DP  RH WIND       PRES   REMARKS
DFW AIRPORT    CLEAR     48  35  60 NW13      29.94R
6HR MIN TEMP:  41; 6HR MAX TEMP:  48;

DALLAS LOVE    CLEAR     40  34  79 CALM      29.96R
6HR MIN TEMP:  40; 6HR MAX TEMP:  48;

FTW MEACHAM    CLEAR     47  35  63 W10       29.95R
6HR MIN TEMP:  42; 6HR MAX TEMP:  48;

DAL-EXECUTIVE  CLEAR     48  35  60 W13       29.95R
6HR MIN TEMP:  48; 6HR MAX TEMP:  52;

FTW-ALLIANCE   CLEAR     44  34  67 W8        29.95R WCI  39
6HR MIN TEMP:  40; 6HR MAX TEMP:  46;

FTW-SPINKS     CLEAR     44  35  70 NW8       29.98R WCI  39
6HR MIN TEMP:  40; 6HR MAX TEMP:  48;

ARLINGTON      CLEAR     47  34  60 W7        29.96R
6HR MIN TEMP:  35; 6HR MAX TEMP:  48;

ADDISON        CLEAR     45  34  65 W6        29.96R
LANCASTER      CLEAR     46  34  62 W14       29.96R
6HR MIN TEMP:  39; 6HR MAX TEMP:  46;

$$

TXZ091>094-102>105-117-120-121-131>134-251300-
NORTH CENTRAL TEXAS

CITY           SKY/WX    TMP DP  RH WIND       PRES   REMARKS
SHRMAN/DENISON CLEAR     38  36  93 SW3       29.94R
6HR MIN TEMP:  38; 6HR MAX TEMP:  44;

GAINESVILLE    CLEAR     43  34  71 NW8       29.95S WCI  38
6HR MIN TEMP:  35; 6HR MAX TEMP:  45;

BOWIE          CLEAR     40  34  78 W10       29.96R WCI  34
6HR MIN TEMP:  40; 6HR MAX TEMP:  48;

BRIDGEPORT     CLEAR     44  37  75 W10       29.99S WCI  38
6HR MIN TEMP:  41; 6HR MAX TEMP:  47;

DECATUR        CLEAR     41  33  73 W8        29.96S WCI  36
6HR MIN TEMP:  41; 6HR MAX TEMP:  47;

DENTON         CLEAR     44  35  70 NW10      29.94S WCI  39
6HR MIN TEMP:  33; 6HR MAX TEMP:  44;

MCKINNEY       CLEAR     45  35  68 NW9G21    29.93S
6HR MIN TEMP:  37; 6HR MAX TEMP:  48;

GREENVILLE     CLEAR     43  34  70 W7        29.93R WCI  39
ROCKWALL       CLEAR     45  37  73 W7        29.93R
6HR MIN TEMP:  43; 6HR MAX TEMP:  46;

TERRELL        CLEAR     39  34  82 W3        29.95R
6HR MIN TEMP:  37; 6HR MAX TEMP:  42;

WAXAHACHIE     CLEAR     44  37  76 W10       29.97R WCI  39
6HR MIN TEMP:  42; 6HR MAX TEMP:  46;

CLEBURNE       PTCLDY    41  37  87 W9        29.99R WCI  35
GRANBURY       PTCLDY    44  35  70 W6        30.00R
6HR MIN TEMP:  35; 6HR MAX TEMP:  46;

$$

TXZ083>090-098>101-113>116-127>130-139>142-154-155-251300-
WESTERN NORTH TEXAS

CITY           SKY/WX    TMP DP  RH WIND       PRES   REMARKS
WICHITA FALLS  CLEAR     43  34  70 NW17      29.99R WCI  35
6HR MIN TEMP:  40; 6HR MAX TEMP:  45;

WF-KICKAPOO    CLEAR     39  28  63 NW13G18   30.02R WCI  32
VERNON         FAIR      46  30  54 NW17      30.05R WCI  39
6HR MIN TEMP:  31; 6HR MAX TEMP:  67;

ABILENE        PTCLDY    41  31  67 NW8       30.07R WCI  36
6HR MIN TEMP:  40; 6HR MAX TEMP:  46;

ABILENE-DYESS  PTCLDY    42  32  66 NW7       30.07R WCI  38
6HR MIN TEMP:  36; 6HR MAX TEMP:  48;

BRECKENRIDGE   CLEAR     42  33  71 W5        30.03R WCI  39
6HR MIN TEMP:  41; 6HR MAX TEMP:  48;

GRAHAM         CLEAR     39  35  84 CALM      30.00R
6HR MIN TEMP:  39; 6HR MAX TEMP:  42;

MINERAL WELLS  CLEAR     43  34  70 W9        29.98R WCI  38
6HR MIN TEMP:  37; 6HR MAX TEMP:  45;

STEPHENVILLE   PTCLDY    43  34  69 NW8       30.02R WCI  38
6HR MIN TEMP:  43; 6HR MAX TEMP:  49;

COMANCHE       CLEAR     46  35  66 NW9       30.03R
6HR MIN TEMP:  46; 6HR MAX TEMP:  50;

BROWNWOOD      CLEAR     32  32 100 CALM      30.04R
COLEMAN        CLEAR     47  34  61 NW15      30.05R
6HR MIN TEMP:  45; 6HR MAX TEMP:  47;

BRADY          CLEAR     39  32  75 W6        30.03R WCI  35
$$

TXZ143>147-156>162-174-175-251300-
CENTRAL TEXAS

CITY           SKY/WX    TMP DP  RH WIND       PRES   REMARKS
WACO           CLEAR     36  34  92 CALM      29.97S
6HR MIN TEMP:  35; 6HR MAX TEMP:  42;

WACO-MCGREGOR  CLEAR     39  32  75 W9        29.98F WCI  33
6HR MIN TEMP:  37; 6HR MAX TEMP:  43;

HILLSBORO      CLEAR     36  32  85 CALM      29.98R
6HR MIN TEMP:  36; 6HR MAX TEMP:  44;

CORSICANA      CLEAR     43  36  76 SW12      29.96R WCI  37
6HR MIN TEMP:  40; 6HR MAX TEMP:  44;

MEXIA          CLEAR     39  35  84 SW5       29.96S WCI  36
6HR MIN TEMP:  39; 6HR MAX TEMP:  46;

HEARNE         CLEAR     35  33  96 CALM      30.00F
6HR MIN TEMP:  34; 6HR MAX TEMP:  43;

CAMERON        CLEAR     43  37  78 SW6       29.98F WCI  39
6HR MIN TEMP:  43; 6HR MAX TEMP:  49;

TEMPLE         CLEAR     43  34  70 W8        29.97S WCI  38
6HR MIN TEMP:  36; 6HR MAX TEMP:  45;

KILLEEN        CLEAR     49  34  55 W13       29.98S
6HR MIN TEMP:  45; 6HR MAX TEMP:  51;

KILLEEN-SKYLRK CLEAR     46  30  53 W5        29.96S
6HR MIN TEMP:  45; 6HR MAX TEMP:  48;

FORT HOOD      CLEAR     45  35  68 MISG      29.98S
6HR MIN TEMP:  44; 6HR MAX TEMP:  49;

GATESVILLE     CLEAR     39  34  81 CALM      30.01S
HAMILTON       CLEAR     46  35  67 W14       30.00S WCI  39
6HR MIN TEMP:  43; 6HR MAX TEMP:  48;

LAMPASAS       CLEAR     45  35  66 W6        29.99S
6HR MIN TEMP:  41; 6HR MAX TEMP:  50;

$$

TXZ095>097-106>112-122>126-135>138-148>153-164>167-251300-
EAST TEXAS

CITY           SKY/WX    TMP DP  RH WIND       PRES   REMARKS
PARIS          CLEAR     39  34  81 CALM      29.89F
6HR MIN TEMP:  39; 6HR MAX TEMP:  43;

SULPHUR SPRNGS CLEAR     41  35  79 W8        29.94S WCI  35
6HR MIN TEMP:  41; 6HR MAX TEMP:  46;

MOUNT PLEASANT CLEAR     40  36  85 W7        29.92S WCI  36
6HR MIN TEMP:  33; 6HR MAX TEMP:  44;

GILMER         CLEAR     42  35  78 SW5       29.92R WCI  39
6HR MIN TEMP:  38; 6HR MAX TEMP:  43;

MINEOLA        CLEAR     45  37  76 SW7       29.93R
TYLER          CLEAR     44  35  70 SW9       29.93S WCI  39
6HR MIN TEMP:  43; 6HR MAX TEMP:  48;

LONGVIEW       CLEAR     43  34  70 SW7       29.91F WCI  39
6HR MIN TEMP:  38; 6HR MAX TEMP:  44;

MARSHALL       CLEAR     38  35  90 SW5       29.93F WCI  35
6HR MIN TEMP:  36; 6HR MAX TEMP:  38;

ATHENS         CLEAR     34  32  93 CALM      29.94S
PALESTINE      CLEAR     38  35  90 CALM      29.98S
HENDERSON      CLEAR     37  33  89 CALM      29.94S
6HR MIN TEMP:  35; 6HR MAX TEMP:  43;

NACOGDOCHES    CLEAR     37  30  75 SW6       29.97F WCI  33
6HR MIN TEMP:  37; 6HR MAX TEMP:  45;

LUFKIN         CLEAR     41  33  73 SW6       29.97F WCI  37
6HR MIN TEMP:  36; 6HR MAX TEMP:  46;

$$

SUPPLEMENTAL OBSERVATIONS (CENTRAL)

CITY           SKY/WX    TMP DP  RH WIND       PRES   REMARKS
LAKE TEXOMA      N/A     46  37  71 W10         N/A
PAT MAYSE LAKE   N/A     45  36  70 SW7         N/A
ATHENS           N/A     43  36  75 W2          N/A
LAKE LIMESTONE   N/A     43  36  75 W6          N/A  WCI  39
MCGREGOR         N/A     45  36  70 W6G14       N/A
$$

SUPPLEMENTAL OBSERVATIONS (WEST)

CITY           SKY/WX    TMP DP  RH WIND       PRES   REMARKS
MILLERS CREEK    N/A     36  32  87 SW6         N/A  WCI  31
COMANCHE         N/A     45  32  61 W12         N/A  WCI  39
HAMBY            N/A     36  32  87 SW1         N/A
IVIE RESERVOIR   N/A     39  32  75 NW7         N/A  WCI  34
COLORADO BEND    N/A     43  32  65 W2          N/A
$$

SUPPLEMENTAL OBSERVATIONS (EAST)

CITY           SKY/WX    TMP DP  RH WIND       PRES   REMARKS